Погода Мыс Лопатка

Погода Мыс Лопатка : погода сейчас, прогноз погоды и архив. Всё, что Вы хотите узнать о погоде Мыс Лопатка!

Поиск расширенной информации на нашем сайте:

Другие новости

Новости СМИ2

Главная страница сайта

Новости сайта

03.07.2017

Напоминаем, что на нашем специализированном сайте Метеоцентр.Азия вы можете получить высокодетализированные автоматические прогнозы погоды по пунктам России, СНГ и мира в авиационном формате (включающие направление и скорость ветра, видимость, явления погоды, количество и форму облачности, нижнюю и верхнюю границу облачности).


Погода Мыс Лопатка - сегодня

Время (UTC), дата Ветер
(°,м/с) 
Видим.   Явления Облачность Т
(°С)
Тd
(°С)
f(%) Тe
(°С)
Pmin
(гПа)
dP
(гПа)
Po
(мм)
O2
(г/м3)
Тmin Tmax R s Состояние
почвы
12 11.08.18 330 (СЗ) 2000 м  дымка  10/10 100 м 
[St]
+9.7 +9.5 99 +11  1013.9  1.3  756  292           
15 11.08.18 110 (В) 4000 м  дымка  10/10 200 м 
[St]
+10.7 +10.3 97 +11  1013.9  756  291           
18 11.08.18 130 (ЮВ) 20000 м    10/10 600 м 
[Sc]
+11.1 +10 93 +11  1014.6  0.8  756  291           
00 12.08.18 120 (ЮВ) 20000 м    9/1 600 м верхняя 
[Sc|Ci fib]
+13.4 +11.5 88 +16  1016.2  0.9  758  289           
03 12.08.18 140 (ЮВ) 20000 м    9/1 600 м средняя, верхняя 
[Sc|Ac trans|Cc]
+14.3 +12 86 +18  1016.3  0.1  758  288           
06 12.08.18 160 (Ю) 20000 м    9/3 600 м средняя, верхняя 
[Sc|Ac trans|Ci sp]
+13.6 +11.5 87 +16  1016.7  0.4  758  289           
12 12.08.18 150 (ЮВ) 20000 м    10/10 600 м 
[Sc]
+11.2 +10.4 95 +11  1017.5  0.5  759  292           
15 12.08.18 150 (ЮВ) 20000 м    10/10 600 м 
[Sc]
+10.6 +10.3 98 +11  1018  0.4  759  292           
18 12.08.18 170 (Ю) 20000 м    9/9 600 м 
[Sc]
+10.8 +9.6 92 +10  1017.8  -0.2  759  292           
00 13.08.18 150 (ЮВ) 20000 м    10/10 600 м 
[Sc]
+11.9 +11 94 +13  1018.1  0.2  759  291           
03 13.08.18 150 (ЮВ) 20000 м  слаб. дождь  10/8 600 м средняя 
[Sc|Ac As]
+11.6 +11.2 97 +13  1017.8  -0.3  759  291           
06 13.08.18 140 (ЮВ) 20000 м  слаб. дождь  10/3 600 м средняя 
[Sc|Ac As]
+11.2 +10.9 98 +12  1017.5  -0.3  759  292           
09 13.08.18 150 (ЮВ) 8-10{10}  4000 м  дождь  10/10 300 м 
[Frnb|Ns]
+11 +10.7 98 +11  1017.2  -0.4  758  292    +12     
21 13.08.18 160 (Ю) 7-10{12}  2000 м  морось  10/10 100 м 
[St]
+10.6 +10.5 99 +11  1015.5  0.1  757  292  +10.6    14    влажная 
09 14.08.18 120 (ЮВ) 8-10{12}  2000 м  сильн. морось{ливн. осадки}  10/10 100 м 
[St]
+10.3 +10.2 99 +9  1013.6  -0.1  756  292    +11  11     
21 14.08.18 090 (В) 12-15{15}  4000 м  в посл. час морось  10/10 200 м 
[St]
+11.5 +11.4 99 +12  1013.7  0.3  756  290  +10.2      влажная 
12 15.08.18 330 (СЗ) 4000 м  слаб. ливневой дождь  10/10 200 м кучево-дожд. 
[Cb cap]
+9.9 +9.8 99 +11  1013.8  -0.1  756  292           
15 15.08.18 350 (С) 4000 м  слаб. ливневой дождь  10/10 200 м кучево-дожд. 
[Cb cap]
+10.1 +10 99 +11  1013.3  -0.5  755  292           
18 15.08.18 310 (СЗ) 4000 м  слаб. ливневой дождь  10/10 200 м кучево-дожд. 
[Cb cap]
+10.1 +10 99 +12  1012.8  -0.5  755  292           
21 15.08.18 310 (СЗ) 2000 м  слаб. ливневой дождь  10/10 100 м кучево-дожд. 
[Cb cap]
+10 +9.9 99 +10  1012.9  0.1  755  292  +9.7      влажная 
03 16.08.18 310 (СЗ) 2000 м  слаб. морось  10/10 100 м 
[St]
+11.5 +11.2 98 +13  1011.9  -0.4  754  290           
06 16.08.18 300 (СЗ) 2000 м  в посл. час туман{морось}  10/10 100 м 
[St]
+10.2 +10.1 99 +9  1011.6  -0.4  754  291           
09 16.08.18 300 (СЗ) 8-10{11}  20000 м  в посл. час туман  3/1 200 м средняя, верхняя 
[St|Ac trans|Ci sp]
+9.2 +9.1 99 +7  1012  0.4  754  292    +11.8     
15 16.08.18 320 (СЗ) 2000 м  дымка  10/10 100 м 
[St]
+9.6 +9.5 99 +8  1012.2  -0.1  755  292           
18 16.08.18 010 (С) 4000 м  дымка  9/9 200 м 
[St]
+9.4 +9.4 100 +9  1011.6  -0.5  754  292           
Время (UTC), дата Ветер
(°,м/с) 
Видим.   Явления Облачность Т
(°С)
Тd
(°С)
f(%) Тe
(°С)
Pmin
(гПа)
dP
(гПа)
Po
(мм)
O2
(г/м3)
Тmin Tmax R s Состояние
почвы

Для получения пояснительной информации подведите курсор к названию столбца.

ПОГОДА Мыс Лопатка - архив

Всё, что Вы хотите узнать о погоде Мыс Лопатка - удобно и подробно!

Выберите нужную дату (начиная с 1 января 2015* года) и нажмите кнопку "Найти".
Будут отображены архивные сводки погоды по пункту Мыс Лопатка, начиная с указанной даты.


Отображать данные в формате CSV (для использования в таблицах Excel)


Внимание! Наш архив погоды предназначен исключительно для личного некоммерческого использования в познавательных целях. Если Вам необходимы официальные справки о состоянии погоды (для производственных, юридических, коммерческих и т.п. целей), обращайтесь в органы Росгидромета.

*Примечание: данная дата относится к архиву по метеостанциям СССР (Россия, СНГ, Балтия).
Архив по метеостанциям Зарубежной Европы и Азии (кроме Китая) хранится 10 дней, по другим регионам земного шара (Китай, Африка, Америка, Австралия, Океания) - 1 день.

Мыс Лопатка - район местоположения метеостанции


Название, широта, долгота, высота метеостанции:
Мыс Лопатка 50.9°ш. 156.7°д. 48 м над ур. моря [Российская Федерация]

Дополнительная информация

В oтличие oт бoльшинства пoгoдных сайтoв мы публикуем пoдрoбную метеoинфoрмацию в детальнoм прoфессиoнальнoм фoрмате.

Характеристики температуры и влажнoсти вoздуха измеряются на высoте 2 м в тени вдали oт зданий и деревьев.
Скoрoсть ветра измеряется на высoте 10 м (на урoвне рoста челoвека скoрoсть ветра ниже в 1.5-2 раза). Если метеoстанция нахoдится в гoрoде или в лесу, тo скoрoсть ветра занижена на 2-4 м/с пo сравнению с oткрытым местoм. Скoрoсть ветра над акватoриями крупных рек и oзёр, а также на вершинах хoлмoв на 2-5 м/с выше, чем в oбычных услoвиях.
Атмoсфернoе давление в разных тoчках местнoсти мoжет значительнo oтличаться oт давления на метеoстанции, в зависимoсти oт услoвий рельефа (при пoдъёме на 10 м давление пoнижается примернo на 1 мм рт.ст.).